Notice: Undefined index: wuKey in /web/htdocs/www.meteopomezia.it/home/weather28/wuforecast/wualmanac.php on line 27




Webcam Castelli Romani more information Webcam Castelli Romani


Webcam Traffico live more information Webcam Traffico live


avvertimento per Temporali more information blitzortung!


avvertimento per Pioggia more information rain snow radar


altri nostri siti meteo:

Rischio IncendiRischio Incendi

Meteo-CloudBanner Meteo-Cloud

Pomeziameteo 1Sito sul meteo

Pomeziameteo DashboardSito sul meteo

Caput FrigorisSito sul meteo

BarcellonameteoSito sul meteo

MeteoipassiSito sul meteo

ViterbometeoSito sul meteo

TortoretometeolidoSito sul meteo

MeteospinacetoSito sul meteo

MeteoardeaSito sul meteo

MeteopalestrinaSito sul meteo

MeteocastelliSito sul meteo

MeteoiserniaSito sul meteo

RomaeurmeteoSito sul meteo

MeteomarconiaSito sul meteo

CastelnuovovomanometeoSito sul meteo

MeteogonzagaSito sul meteo

MeteonetworkInvio dai a Meteonetwork

Rete Linea MeteoInvio dai a Meteonetwork

DesotermicaBanner Desotermica



Vento Da: 13-12-2019 12:00 Fino a: 14-12-2019 06:59 Avvertimento per: Vento Livello: Rosso info button
Temporali Da: 13-12-2019 12:00 Fino a: 18:59 Avvertimento per: Temporali Livello: Arancio info button
Pioggia Da: 13-12-2019 12:00 Fino a: 18:59 Avvertimento per: Pioggia Livello: Arancio info button

Select another period ( hide this area )

Unita Periodo Custom range Directly to
Metrico Inglese Entrambi
Quotidiano Settimanale mensile Annuale
use both date-selectors for a custom range
previous Day
With this date

WeatherUnderground graphs for this period ( click here )


Quotidiano Riepilogo per Venerdi' 13 Dicembre 2019
Tempo Temp. ( °C ) Dew pt. ( °C ) Vento ( km/h ) da Raffica ( km/h ) Pressione ( hPa ) Humid.( % ) Rainrate ( cm ) solare ( W/m2 )
Max15,3 12,7 27,4 SE ( 439/2549 ) 56,3 1002,9 95 3,80 120
Media10,1 7,3 9,4 SE #42/271 22,4 993,3 83 2,90 37 #101/271
Min5,4 3,1 -   0,0 984,3 66 -  
Quotidiano Tabular details for Venerdi' 13 Dicembre 2019
Tempo Temp. ( °C ) Dew pt. ( °C ) Vento ( km/h ) da Raffica ( km/h ) Pressione ( hPa ) Humid.( % ) Rainrate ( cm ) solare ( W/m2 )
00:00 7,6 5,0 1,6 NE 3,2 1002,9 84 - -
00:05 7,6 5,0 1,6 NE 3,2 1002,9 84 - -
00:10 7,6 5,0 1,6 NE 1,6 1002,9 84 - -
00:15 7,6 5,0   calma 1,6 1002,9 84 - -
00:20 7,5 4,9   calma   1002,9 84 - -
00:25 7,4 4,7   calma   1002,6 83 - -
00:30 7,3 4,8 1,6 NE 1,6 1002,6 84 - -
00:35 7,4 4,8 1,6 NE 3,2 1002,6 84 - -
00:40 7,5 4,9 1,6 NE 3,2 1002,6 84 - -
00:45 7,6 4,8 1,6 NE 3,2 1002,6 83 - -
00:50 7,6 4,8   calma 1,6 1002,6 83 - -
00:55 7,4 4,7   calma   1002,3 83 - -
01:00 7,2 4,5   calma   1002,3 83 - -
01:05 7,0 4,3   calma   1002,3 83 - -
01:10 7,1 4,5   calma 4,8 1002,3 84 - -
01:15 7,3 4,7 1,6 NE 4,8 1002,3 84 - -
01:20 7,3 4,8   calma 3,2 1002,3 84 - -
01:25 7,3 4,8 1,6 NE 3,2 1002,3 84 - -
01:30 7,3 4,6 3,2 NE 3,2 1002,3 83 - -
01:35 7,2 4,6 1,6 NE 3,2 1002,3 84 - -
01:40 7,1 4,6   calma 3,2 1002,3 84 - -
01:45 7,1 4,5 1,6 NE 3,2 1001,9 84 - -
01:50 7,0 4,4 1,6 NE 3,2 1001,9 84 - -
01:55 7,0 4,4 1,6 NE 4,8 1001,9 84 - -
02:00 6,9 4,4 4,8 NE 6,4 1001,9 84 - -
02:05 6,9 4,3 1,6 NE 6,4 1002,3 84 - -
02:10 6,8 4,2 3,2 NE 4,8 1001,9 84 - -
02:15 6,7 4,2 3,2 NE 4,8 1001,9 84 - -
02:20 6,8 4,2 4,8 Oriente 6,4 1001,9 84 - -
02:25 6,8 4,3 8,0 Oriente 9,7 1001,9 84 - -
02:30 6,9 4,2 6,4 Oriente 8,0 1001,9 83 - -
02:35 6,8 4,1 4,8 SE 9,7 1001,6 83 - -
02:40 6,7 3,9 4,8 SE 6,4 1001,9 83 - -
02:45 6,4 3,7 3,2 SE 6,4 1001,6 83 - -
02:50 6,1 3,3 4,8 SE 6,4 1001,6 83 - -
02:55 5,9 3,4 4,8 SE 9,7 1001,6 84 - -
03:00 5,7 3,2 3,2 SE 9,7 1001,6 84 - -
03:05 5,6 3,2 3,2 SE 4,8 1001,6 85 - -
03:10 5,4 3,1 3,2 SE 4,8 1001,6 85 - -
03:15 5,6 3,4 6,4 SE 8,0 1001,6 86 - -
03:20 5,7 3,5 6,4 SE 9,7 1001,6 86 - -
03:25 5,8 3,7 6,4 SE 11,3 1001,2 86 - -
03:30 5,9 3,6 6,4 SE 11,3 1001,2 85 - -
03:35 5,9 3,6 3,2 SE 9,7 1001,2 85 - -
03:40 5,8 3,3 6,4 SE 8,0 1000,9 84 - -
03:45 5,7 3,2 6,4 SE 11,3 1000,9 84 - -
03:50 5,6 3,2 6,4 SE 11,3 1000,9 85 - -
03:55 5,5 3,2 8,0 SE 11,3 1000,6 85 - -
04:00 5,4 3,1 6,4 SE 11,3 1000,6 85 - -
04:05 5,5 3,2 4,8 SE 11,3 1000,2 85 - -
04:10 5,5 3,2 3,2 SE 9,7 1000,2 85 - -
04:15 5,5 3,2 3,2 SE 9,7 1000,2 85 - -
04:20 5,6 3,2 6,4 SE 9,7 1000,2 85 - -
04:25 5,7 3,3 8,0 SE 12,9 999,9 85 - -
04:30 5,7 3,4 6,4 S 11,3 1000,2 85 - -
04:35 5,8 3,4 3,2 SE 8,0 999,9 85 - -
04:40 5,9 3,6 8,0 SE 8,0 999,9 85 - -
04:45 6,1 3,6 3,2 SE 11,3 999,9 84 - -
04:50 6,2 3,7 4,8 SE 11,3 999,5 84 - -
04:55 6,3 3,8 3,2 SE 6,4 999,9 84 - -
05:00 6,4 3,9 4,8 SE 11,3 999,9 84 - -
05:05 6,6 4,1 9,7 S 12,9 999,5 84 - -
05:10 6,8 4,1 6,4 SE 12,9 999,2 83 - -
05:15 6,8 4,1 4,8 SE 12,9 999,2 83 - -
05:20 6,9 4,2 6,4 SE 12,9 999,2 83 - -
05:25 7,0 4,3 4,8 SE 12,9 999,2 83 - -
05:30 7,0 4,3 8,0 S 11,3 998,9 83 - -
05:35 7,1 4,2 8,0 S 12,9 998,9 82 - -
05:40 7,2 4,3 8,0 SE 12,9 998,9 82 - -
05:45 7,3 4,4 4,8 SE 12,9 998,9 82 - -
05:50 7,3 4,4 11,3 SE 12,9 998,5 82 - -
05:55 7,4 4,6 8,0 S 16,1 998,5 82 - -
06:00 7,5 4,6 11,3 SE 17,7 998,9 82 - -
06:05 7,7 4,6 8,0 SE 17,7 998,5 81 - -
06:10 7,8 4,7 12,9 SE 17,7 998,5 81 - -
06:15 7,8 4,7 9,7 S 17,7 998,5 81 - -
06:20 7,9 4,8 8,0 SE 19,3 998,5 81 0,30 -
06:25 7,8 4,7 11,3 SE 17,7 998,5 81 0,30 -
06:30 7,8 4,7 11,3 SE 14,5 998,5 81 0,30 -
06:35 7,8 4,7 6,4 S 17,7 998,5 81 0,50 -
06:40 7,7 4,8 11,3 SE 19,3 998,5 82 0,50 -
06:45 7,7 4,8 6,4 SE 20,9 998,2 82 0,50 -
06:50 7,6 4,7 14,5 SE 20,9 998,2 82 0,50 -
06:55 7,6 4,7 11,3 SE 22,5 998,2 82 0,50 -
07:00 7,5 4,8 16,1 S 22,5 998,2 83 0,50 -
07:05 7,4 4,7 14,5 SE 20,9 997,9 83 0,80 -
07:10 7,4 4,8 8,0 S 24,1 997,9 84 0,80 -
07:15 7,3 4,8 8,0 SE 16,1 997,9 84 0,80 -
07:20 7,3 4,7 4,8 S 14,5 997,9 84 0,50 -
07:25 7,3 4,7 22,5 Sud 22,5 997,9 84 0,50 -
07:30 7,3 4,9 14,5 SE 32,2 997,9 85 0,50 -
07:35 7,2 4,8 17,7 SE 24,1 997,5 85 0,50 -
07:40 7,2 4,8 17,7 SE 30,6 997,9 85 0,50 -
07:45 7,1 4,8 19,3 SE 32,2 997,5 86 0,50 -
07:50 7,0 4,9 17,7 S 32,2 997,5 87 0,50 -
07:55 7,0 4,9 14,5 SE 35,4 997,2 87 0,50 -
08:00 7,1 5,2 8,0 S 30,6 997,5 88 0,80 5
08:05 7,1 5,2 16,1 SE 25,7 997,5 88 0,50 -
08:10 7,0 5,1 14,5 S 25,7 997,2 88 0,80 -
08:15 7,0 5,3 16,1 SE 29,0 997,2 89 1,30 5
08:20 6,9 5,4 19,3 SE 22,5 997,2 90 1,50 11
08:25 6,9 5,4 6,4 S 25,7 997,2 90 1,50 5
08:30 7,1 5,7 14,5 S 20,9 997,2 91 1,50 5
08:35 7,1 5,7 11,3 SE 22,5 997,2 91 1,80 14
08:40 7,2 5,8 6,4 SE 19,3 997,2 91 1,50 9
08:45 7,3 5,9 12,9 SE 17,7 997,2 91 1,80 5
08:50 7,4 6,2 17,7 Oriente 30,6 996,8 92 2,30 7
08:55 7,5 6,3 9,7 SE 33,8 996,8 92 2,30 11
09:00 7,6 6,3 12,9 SE 27,4 996,5 92 2,00 12
09:05 7,6 6,4 19,3 SE 29,0 996,5 92 2,30 18
09:10 7,6 6,4 14,5 SE 29,0 996,5 92 2,30 9
09:15 7,7 6,4 11,3 SE 24,1 996,5 92 2,30 21
09:20 7,7 6,5 11,3 S 20,9 996,2 92 2,00 21
09:25 7,8 6,7 11,3 S 24,1 996,2 93 2,30 37
09:30 7,8 6,7 20,9 SE 27,4 996,2 93 2,00 12
09:35 7,9 6,8 20,9 S 29,0 995,8 93 2,30 32
09:40 8,0 6,9 22,5 SE 29,0 995,8 93 2,30 14
09:45 8,1 6,9 9,7 S 25,7 996,2 93 2,30 16
09:50 8,0 6,9 12,9 SE 22,5 995,8 93 2,30 37
09:55 8,0 6,9 12,9 S 17,7 995,8 93 2,30 26
10:00 8,1 7,0 14,5 SE 25,7 995,8 93 2,30 42
10:05 8,2 7,1 19,3 SE 29,0 995,5 93 2,30 39
10:10 8,4 7,4 6,4 S 24,1 995,5 94 2,30 32
10:15 8,5 7,6 14,5 SE 27,4 995,5 94 1,80 21
10:20 8,7 7,8 20,9 S 29,0 995,1 94 1,80 23
10:25 9,1 8,1 14,5 S 24,1 995,1 94 1,50 30
10:30 9,3 8,3 8,0 SE 20,9 995,1 94 1,50 30
10:35 9,3 8,4 9,7 S 16,1 995,1 94 1,30 30
10:40 9,4 8,4 8,0 S 12,9 994,8 94 1,30 39
10:45 9,3 8,4 1,6 Sud 8,0 994,8 94 1,00 47
10:50 9,4 8,4 1,6 S 9,7 994,8 94 0,50 39
10:55 9,6 8,6 3,2 Sud 11,3 994,8 94 0,50 120
11:00 10,5 9,7 8,0 S 22,5 994,5 95 0,50 69
11:05 11,2 10,4 4,8 SW 17,7 994,5 95 0,50 65
11:10 11,5 10,7 8,0 S 22,5 994,1 95 0,30 79
11:15 11,7 10,7 4,8 S 16,1 994,1 94 0,30 56
11:20 11,8 10,9 11,3 SW 33,8 994,1 94 0,30 67
11:25 12,0 11,1 4,8 Sud 24,1 994,1 94 0,30 49
11:30 12,1 11,2 6,4 S 20,9 993,8 94 0,30 90
11:35 12,3 11,2 6,4 S 16,1 993,5 93 0,30 25
11:40 12,5 11,4 11,3 S 22,5 993,5 93 0,30 25
11:45 12,6 11,3 4,8 SW 25,7 993,1 92 0,30 19
11:50 12,7 11,4 8,0 Sud 27,4 993,1 92 0,30 49
11:55 12,8 11,4 3,2 S 25,7 992,8 91 0,30 60
12:00 12,9 11,5 8,0 Sud 27,4 992,4 91 - 105
12:05 13,0 11,4 9,7 Sud 16,1 992,1 90 - 81
12:10 13,1 11,4 3,2 S 19,3 992,1 90 - 28
12:15 13,1 11,5 3,2 NO 38,6 992,1 90 0,50 12
12:20 13,1 11,5 16,1 SW 38,6 991,8 90 2,00 21
12:25 12,9 11,3 3,2 Nord 16,1 991,4 90 2,00 58
12:30 13,0 11,6 11,3 W 29,0 991,4 91 2,00 107
12:35 13,1 11,7 4,8 NO 32,2 991,4 91 2,30 77
12:40 13,1 11,8 6,4 SE 33,8 991,1 92 2,30 54
12:45 13,0 11,6 3,2 W 22,5 991,1 91 2,30 42
12:50 12,9 11,7 17,7 SW 24,1 990,7 92 3,30 21
12:55 13,0 11,7 14,5 SW 29,0 990,7 92 3,60 44
13:00 13,0 11,7 4,8 W 25,7 990,7 92 3,60 67
13:05 13,1 11,8 4,8 W 25,7 990,4 92 3,80 56
13:10 13,1 11,8 1,6 Oriente 16,1 990,4 92 3,80 58
13:15 13,2 11,9 11,3 Sud 37,0 990,1 92 3,30 46
13:20 13,2 11,9 6,4 SW 27,4 990,1 92 1,80 63
13:25 13,3 12,1 11,3 SW 29,0 989,7 92 1,80 40
13:30 13,4 12,2 4,8 NO 24,1 989,7 92 1,80 32
13:35 13,3 11,8 6,4 NO 24,1 989,7 91 1,50 88
13:40 13,3 11,8 6,4 SE 24,1 989,4 91 1,50 107
13:45 13,6 12,1 12,9 W 29,0 989,4 91 1,50 120
13:50 13,8 12,1 16,1 S 20,9 989,1 90 0,50 114
13:55 13,9 12,3 3,2 Sud 22,5 989,1 90 0,30 83
14:00 14,1 12,2 4,8 S 30,6 988,7 89 0,30 67
14:05 14,2 12,3 3,2 NE 33,8 988,7 89 - 51
14:10 14,2 12,3 4,8 West 35,4 988,4 89 - 54
14:15 14,3 12,4 16,1 S 29,0 988,4 89 - 32
14:20 14,3 12,3 12,9 S 24,1 988,0 88 - 21
14:25 14,3 12,3 6,4 SW 30,6 988,0 88 - 16
14:30 14,4 12,1 17,7 S 30,6 987,7 86 - 12
14:35 14,5 12,0 19,3 S 37,0 987,4 85 - 16
14:40 14,6 12,1 3,2 W 37,0 987,4 85 - 9
14:45 14,6 12,1 9,7 NE 35,4 987,0 85 0,30 9
14:50 14,5 12,2 11,3 NE 43,4 986,7 86 0,50 14
14:55 14,5 12,2 3,2 Nord 48,3 986,7 86 0,50 11
15:00 14,4 12,3 19,3 Sud 37,0 986,3 87 0,80 7
15:05 14,4 12,3 9,7 Sud 41,8 986,3 87 0,80 11
15:10 14,5 12,5 19,3 S 32,2 986,3 88 0,80 12
15:15 14,6 12,4 17,7 S 30,6 986,0 87 0,80 44
15:20 14,7 12,6 16,1 Sud 33,8 986,0 87 0,80 93
15:30 14,9 12,6 6,4 S 33,8 986,0 86 0,80 53
15:35 14,9 12,7 14,5 Sud 25,7 985,7 87 0,80 18
15:40 15,0 12,7 6,4 W 56,3 985,7 86 0,80 23
15:45 15,1 12,5 12,9 W 35,4 985,7 85 0,50 25
15:50 15,2 12,5 11,3 SE 33,8 985,7 84 0,50 16
15:55 15,3 12,4 8,0 NNW 30,6 985,7 83 0,50 9
16:00 15,3 12,4 14,5 NE 37,0 985,7 83 - 9
16:05 15,3 12,4 6,4 Nord 20,9 985,3 83 - 12
16:10 15,3 12,4 11,3 SE 22,5 985,3 83 - 7
16:15 15,3 12,4 20,9 SW 30,6 985,3 83 - 7
16:20 15,2 12,3 8,0 NE 29,0 984,6 83 - 19
16:25 15,0 11,9 6,4 NE 27,4 985,0 82 - 40
16:30 15,1 12,0 12,9 NE 22,5 985,0 82 - 12
16:35 15,1 12,0 6,4 Nord 24,1 984,6 82 - 7
16:40 14,9 11,9 8,0 S 19,3 984,6 82 - -
16:45 14,9 11,9 6,4 Nord 27,4 984,6 82 - -
16:50 15,0 11,9 14,5 S 27,4 984,6 82 - -
16:55 14,8 11,9 8,0 S 33,8 984,6 83 - -
17:00 14,7 11,8 4,8 Oriente 35,4 984,6 83 - -
17:05 14,7 11,8 4,8 NE 22,5 984,3 83 - -
17:10 14,7 11,8 4,8 NE 27,4 984,6 83 - -
17:15 14,8 11,7 17,7 Oriente 29,0 984,6 82 - -
17:20 12,9 9,0 14,5 Nord 51,5 985,7 77 1,50 -
17:25 11,6 8,4 16,1 West 27,4 985,7 81 2,30 -
17:30 10,8 7,3 17,7 West 43,4 985,0 79 3,30 -
17:35 10,9 7,2 8,0 NO 37,0 984,6 78 3,60 -
17:40 11,2 6,9 17,7 West 30,6 985,0 75 3,60 -
17:45 11,8 6,7 8,0 NE 33,8 985,0 71 3,60 -
17:50 12,1 6,6 4,8 West 38,6 985,0 69 3,80 -
17:55 12,2 6,9 12,9 NNW 24,1 985,0 70 3,80 -
18:00 12,3 7,6 6,4 NO 22,5 985,3 73 3,80 -
18:05 12,4 7,7 27,4 W 32,2 985,3 73 3,80 -
18:10 12,7 7,7 12,9 NNW 35,4 985,3 72 3,80 -
18:15 12,7 7,6 4,8 Sud 35,4 985,7 71 3,80 -
18:20 12,7 7,4 8,0 W 41,8 985,7 70 2,30 -
18:25 12,6 7,4 4,8 W 25,7 985,7 71 1,50 -
18:30 12,4 7,5 4,8 W 22,5 985,7 72 0,50 -
18:35 12,3 7,6 19,3 NO 20,9 985,7 73 0,30 -
18:40 12,3 7,6 17,7 West 30,6 985,7 73 0,30 -
18:45 12,2 7,5 3,2 Sud 24,1 985,7 73 0,30 -
18:50 12,1 7,4 4,8 S 19,3 985,7 73 - -
18:55 12,1 7,6 6,4 W 17,7 985,7 74 - -
19:00 12,1 7,6 12,9 SW 17,7 985,7 74 - -
19:05 12,1 7,6 11,3 NO 24,1 985,7 74 - -
19:10 12,1 7,3 14,5 NNW 22,5 985,7 73 - -
19:15 12,1 7,2 20,9 W 46,7 985,7 72 - -
19:20 12,3 6,9 12,9 W 38,6 985,3 70 - -
19:25 12,3 6,8 22,5 SE 41,8 985,7 69 - -
19:30 12,3 6,7 16,1 NE 29,0 985,7 69 - -
19:35 12,3 6,5 22,5 NNW 41,8 985,7 68 - -
19:40 12,2 6,2 9,7 NE 41,8 986,0 67 - -
19:45 12,3 6,1 16,1 SW 33,8 986,0 66 - -
19:50 12,2 6,2 27,4 Nord 33,8 986,0 67 - -
19:55 12,2 6,4 8,0 SW 35,4 986,3 68 - -
20:00 11,9 6,6 1,6 W 27,4 986,3 70 - -
20:05 11,7 6,8 8,0 W 22,5 986,3 72 - -
20:10 11,6 6,7 3,2 NE 37,0 986,0 72 - -
20:15 11,6 6,7 17,7 NO 32,2 986,3 72 - -
20:20 11,6 6,5 16,1 S 35,4 986,3 71 - -
20:25 11,6 6,5 12,9 Sud 29,0 986,3 71 - -
20:30 11,6 6,2 6,4 S 38,6 986,3 70 - -
20:35 11,5 6,4 12,9 W 32,2 986,7 71 - -
20:40 11,4 6,3 19,3 W 25,7 986,7 71 - -
20:45 11,2 6,3 4,8 NO 25,7 986,7 72 - -
20:50 11,1 6,4 8,0 NNW 25,7 986,7 73 - -
20:55 11,1 6,6 12,9 West 25,7 986,7 74 - -
21:00 11,2 6,7 20,9 NO 29,0 986,7 74 - -
21:05 11,2 6,5 1,6 NNW 24,1 987,0 73 - -
21:10 11,1 6,6 6,4 NNW 19,3 987,0 74 - -
21:15 11,1 6,6 9,7 NO 33,8 987,0 74 - -
21:20 11,2 6,5 20,9 NO 29,0 987,0 73 - -
21:25 11,3 6,7 8,0 NO 32,2 987,4 73 - -
21:30 11,3 6,4 8,0 NO 32,2 987,4 72 - -
21:35 11,3 6,6 17,7 NO 32,2 987,4 73 - -
21:40 11,3 6,6 19,3 W 35,4 987,7 73 - -
21:45 11,3 6,6 14,5 W 32,2 987,7 73 - -
21:50 11,3 6,4 20,9 NO 37,0 987,7 72 - -
21:55 11,4 6,3 19,3 West 37,0 987,7 71 - -
22:00 11,4 6,3 22,5 NO 41,8 987,7 71 - -
22:05 11,4 6,3 20,9 NNW 33,8 988,0 71 - -
22:10 11,4 6,1 20,9 NNW 30,6 988,0 70 - -
22:15 11,4 5,9 8,0 W 30,6 988,0 69 - -
22:20 11,4 5,7 4,8 Nord 45,1 988,4 68 - -
22:25 11,4 5,7 6,4 NO 29,0 988,4 68 - -
22:30 11,3 5,8 22,5 NO 30,6 988,4 69 - -
22:35 11,2 5,7 11,3 West 27,4 988,7 69 - -
Quotidiano Riepilogo per Venerdi' 13 Dicembre 2019
Tempo Temp. ( °C ) Dew pt. ( °C ) Vento ( km/h ) da Raffica ( km/h ) Pressione ( hPa ) Humid.( % ) Rainrate ( cm ) solare ( W/m2 )
Max15,3 12,7 27,4 SE ( 439/2549 ) 56,3 1002,9 95 3,80 120
Media10,1 7,3 9,4 SE #42/271 22,4 993,3 83 2,90 37 #101/271
Min5,4 3,1 -   0,0 984,3 66 -  
Quotidiano Tabular details for Venerdi' 13 Dicembre 2019
Tempo Temp. ( °C ) Dew pt. ( °C ) Vento ( km/h ) da Raffica ( km/h ) Pressione ( hPa ) Humid.( % ) Rainrate ( cm ) solare ( W/m2 )
00:00 7,6 5,0 1,6 NE 3,2 1002,9 84 - -
00:05 7,6 5,0 1,6 NE 3,2 1002,9 84 - -
00:10 7,6 5,0 1,6 NE 1,6 1002,9 84 - -
00:15 7,6 5,0   calma 1,6 1002,9 84 - -
00:20 7,5 4,9   calma   1002,9 84 - -
00:25 7,4 4,7   calma   1002,6 83 - -
00:30 7,3 4,8 1,6 NE 1,6 1002,6 84 - -
00:35 7,4 4,8 1,6 NE 3,2 1002,6 84 - -
00:40 7,5 4,9 1,6 NE 3,2 1002,6 84 - -
00:45 7,6 4,8 1,6 NE 3,2 1002,6 83 - -
00:50 7,6 4,8   calma 1,6 1002,6 83 - -
00:55 7,4 4,7   calma   1002,3 83 - -
01:00 7,2 4,5   calma   1002,3 83 - -
01:05 7,0 4,3   calma   1002,3 83 - -
01:10 7,1 4,5   calma 4,8 1002,3 84 - -
01:15 7,3 4,7 1,6 NE 4,8 1002,3 84 - -
01:20 7,3 4,8   calma 3,2 1002,3 84 - -
01:25 7,3 4,8 1,6 NE 3,2 1002,3 84 - -
01:30 7,3 4,6 3,2 NE 3,2 1002,3 83 - -
01:35 7,2 4,6 1,6 NE 3,2 1002,3 84 - -
01:40 7,1 4,6   calma 3,2 1002,3 84 - -
01:45 7,1 4,5 1,6 NE 3,2 1001,9 84 - -
01:50 7,0 4,4 1,6 NE 3,2 1001,9 84 - -
01:55 7,0 4,4 1,6 NE 4,8 1001,9 84 - -
02:00 6,9 4,4 4,8 NE 6,4 1001,9 84 - -
02:05 6,9 4,3 1,6 NE 6,4 1002,3 84 - -
02:10 6,8 4,2 3,2 NE 4,8 1001,9 84 - -
02:15 6,7 4,2 3,2 NE 4,8 1001,9 84 - -
02:20 6,8 4,2 4,8 Oriente 6,4 1001,9 84 - -
02:25 6,8 4,3 8,0 Oriente 9,7 1001,9 84 - -
02:30 6,9 4,2 6,4 Oriente 8,0 1001,9 83 - -
02:35 6,8 4,1 4,8 SE 9,7 1001,6 83 - -
02:40 6,7 3,9 4,8 SE 6,4 1001,9 83 - -
02:45 6,4 3,7 3,2 SE 6,4 1001,6 83 - -
02:50 6,1 3,3 4,8 SE 6,4 1001,6 83 - -
02:55 5,9 3,4 4,8 SE 9,7 1001,6 84 - -
03:00 5,7 3,2 3,2 SE 9,7 1001,6 84 - -
03:05 5,6 3,2 3,2 SE 4,8 1001,6 85 - -
03:10 5,4 3,1 3,2 SE 4,8 1001,6 85 - -
03:15 5,6 3,4 6,4 SE 8,0 1001,6 86 - -
03:20 5,7 3,5 6,4 SE 9,7 1001,6 86 - -
03:25 5,8 3,7 6,4 SE 11,3 1001,2 86 - -
03:30 5,9 3,6 6,4 SE 11,3 1001,2 85 - -
03:35 5,9 3,6 3,2 SE 9,7 1001,2 85 - -
03:40 5,8 3,3 6,4 SE 8,0 1000,9 84 - -
03:45 5,7 3,2 6,4 SE 11,3 1000,9 84 - -
03:50 5,6 3,2 6,4 SE 11,3 1000,9 85 - -
03:55 5,5 3,2 8,0 SE 11,3 1000,6 85 - -
04:00 5,4 3,1 6,4 SE 11,3 1000,6 85 - -
04:05 5,5 3,2 4,8 SE 11,3 1000,2 85 - -
04:10 5,5 3,2 3,2 SE 9,7 1000,2 85 - -
04:15 5,5 3,2 3,2 SE 9,7 1000,2 85 - -
04:20 5,6 3,2 6,4 SE 9,7 1000,2 85 - -
04:25 5,7 3,3 8,0 SE 12,9 999,9 85 - -
04:30 5,7 3,4 6,4 S 11,3 1000,2 85 - -
04:35 5,8 3,4 3,2 SE 8,0 999,9 85 - -
04:40 5,9 3,6 8,0 SE 8,0 999,9 85 - -
04:45 6,1 3,6 3,2 SE 11,3 999,9 84 - -
04:50 6,2 3,7 4,8 SE 11,3 999,5 84 - -
04:55 6,3 3,8 3,2 SE 6,4 999,9 84 - -
05:00 6,4 3,9 4,8 SE 11,3 999,9 84 - -
05:05 6,6 4,1 9,7 S 12,9 999,5 84 - -
05:10 6,8 4,1 6,4 SE 12,9 999,2 83 - -
05:15 6,8 4,1 4,8 SE 12,9 999,2 83 - -
05:20 6,9 4,2 6,4 SE 12,9 999,2 83 - -
05:25 7,0 4,3 4,8 SE 12,9 999,2 83 - -
05:30 7,0 4,3 8,0 S 11,3 998,9 83 - -
05:35 7,1 4,2 8,0 S 12,9 998,9 82 - -
05:40 7,2 4,3 8,0 SE 12,9 998,9 82 - -
05:45 7,3 4,4 4,8 SE 12,9 998,9 82 - -
05:50 7,3 4,4 11,3 SE 12,9 998,5 82 - -
05:55 7,4 4,6 8,0 S 16,1 998,5 82 - -
06:00 7,5 4,6 11,3 SE 17,7 998,9 82 - -
06:05 7,7 4,6 8,0 SE 17,7 998,5 81 - -
06:10 7,8 4,7 12,9 SE 17,7 998,5 81 - -
06:15 7,8 4,7 9,7 S 17,7 998,5 81 - -
06:20 7,9 4,8 8,0 SE 19,3 998,5 81 0,30 -
06:25 7,8 4,7 11,3 SE 17,7 998,5 81 0,30 -
06:30 7,8 4,7 11,3 SE 14,5 998,5 81 0,30 -
06:35 7,8 4,7 6,4 S 17,7 998,5 81 0,50 -
06:40 7,7 4,8 11,3 SE 19,3 998,5 82 0,50 -
06:45 7,7 4,8 6,4 SE 20,9 998,2 82 0,50 -
06:50 7,6 4,7 14,5 SE 20,9 998,2 82 0,50 -
06:55 7,6 4,7 11,3 SE 22,5 998,2 82 0,50 -
07:00 7,5 4,8 16,1 S 22,5 998,2 83 0,50 -
07:05 7,4 4,7 14,5 SE 20,9 997,9 83 0,80 -
07:10 7,4 4,8 8,0 S 24,1 997,9 84 0,80 -
07:15 7,3 4,8 8,0 SE 16,1 997,9 84 0,80 -
07:20 7,3 4,7 4,8 S 14,5 997,9 84 0,50 -
07:25 7,3 4,7 22,5 Sud 22,5 997,9 84 0,50 -
07:30 7,3 4,9 14,5 SE 32,2 997,9 85 0,50 -
07:35 7,2 4,8 17,7 SE 24,1 997,5 85 0,50 -
07:40 7,2 4,8 17,7 SE 30,6 997,9 85 0,50 -
07:45 7,1 4,8 19,3 SE 32,2 997,5 86 0,50 -
07:50 7,0 4,9 17,7 S 32,2 997,5 87 0,50 -
07:55 7,0 4,9 14,5 SE 35,4 997,2 87 0,50 -
08:00 7,1 5,2 8,0 S 30,6 997,5 88 0,80 5
08:05 7,1 5,2 16,1 SE 25,7 997,5 88 0,50 -
08:10 7,0 5,1 14,5 S 25,7 997,2 88 0,80 -
08:15 7,0 5,3 16,1 SE 29,0 997,2 89 1,30 5
08:20 6,9 5,4 19,3 SE 22,5 997,2 90 1,50 11
08:25 6,9 5,4 6,4 S 25,7 997,2 90 1,50 5
08:30 7,1 5,7 14,5 S 20,9 997,2 91 1,50 5
08:35 7,1 5,7 11,3 SE 22,5 997,2 91 1,80 14
08:40 7,2 5,8 6,4 SE 19,3 997,2 91 1,50 9
08:45 7,3 5,9 12,9 SE 17,7 997,2 91 1,80 5
08:50 7,4 6,2 17,7 Oriente 30,6 996,8 92 2,30 7
08:55 7,5 6,3 9,7 SE 33,8 996,8 92 2,30 11
09:00 7,6 6,3 12,9 SE 27,4 996,5 92 2,00 12
09:05 7,6 6,4 19,3 SE 29,0 996,5 92 2,30 18
09:10 7,6 6,4 14,5 SE 29,0 996,5 92 2,30 9
09:15 7,7 6,4 11,3 SE 24,1 996,5 92 2,30 21
09:20 7,7 6,5 11,3 S 20,9 996,2 92 2,00 21
09:25 7,8 6,7 11,3 S 24,1 996,2 93 2,30 37
09:30 7,8 6,7 20,9 SE 27,4 996,2 93 2,00 12
09:35 7,9 6,8 20,9 S 29,0 995,8 93 2,30 32
09:40 8,0 6,9 22,5 SE 29,0 995,8 93 2,30 14
09:45 8,1 6,9 9,7 S 25,7 996,2 93 2,30 16
09:50 8,0 6,9 12,9 SE 22,5 995,8 93 2,30 37
09:55 8,0 6,9 12,9 S 17,7 995,8 93 2,30 26
10:00 8,1 7,0 14,5 SE 25,7 995,8 93 2,30 42
10:05 8,2 7,1 19,3 SE 29,0 995,5 93 2,30 39
10:10 8,4 7,4 6,4 S 24,1 995,5 94 2,30 32
10:15 8,5 7,6 14,5 SE 27,4 995,5 94 1,80 21
10:20 8,7 7,8 20,9 S 29,0 995,1 94 1,80 23
10:25 9,1 8,1 14,5 S 24,1 995,1 94 1,50 30
10:30 9,3 8,3 8,0 SE 20,9 995,1 94 1,50 30
10:35 9,3 8,4 9,7 S 16,1 995,1 94 1,30 30
10:40 9,4 8,4 8,0 S 12,9 994,8 94 1,30 39
10:45 9,3 8,4 1,6 Sud 8,0 994,8 94 1,00 47
10:50 9,4 8,4 1,6 S 9,7 994,8 94 0,50 39
10:55 9,6 8,6 3,2 Sud 11,3 994,8 94 0,50 120
11:00 10,5 9,7 8,0 S 22,5 994,5 95 0,50 69
11:05 11,2 10,4 4,8 SW 17,7 994,5 95 0,50 65
11:10 11,5 10,7 8,0 S 22,5 994,1 95 0,30 79
11:15 11,7 10,7 4,8 S 16,1 994,1 94 0,30 56
11:20 11,8 10,9 11,3 SW 33,8 994,1 94 0,30 67
11:25 12,0 11,1 4,8 Sud 24,1 994,1 94 0,30 49
11:30 12,1 11,2 6,4 S 20,9 993,8 94 0,30 90
11:35 12,3 11,2 6,4 S 16,1 993,5 93 0,30 25
11:40 12,5 11,4 11,3 S 22,5 993,5 93 0,30 25
11:45 12,6 11,3 4,8 SW 25,7 993,1 92 0,30 19
11:50 12,7 11,4 8,0 Sud 27,4 993,1 92 0,30 49
11:55 12,8 11,4 3,2 S 25,7 992,8 91 0,30 60
12:00 12,9 11,5 8,0 Sud 27,4 992,4 91 - 105
12:05 13,0 11,4 9,7 Sud 16,1 992,1 90 - 81
12:10 13,1 11,4 3,2 S 19,3 992,1 90 - 28
12:15 13,1 11,5 3,2 NO 38,6 992,1 90 0,50 12
12:20 13,1 11,5 16,1 SW 38,6 991,8 90 2,00 21
12:25 12,9 11,3 3,2 Nord 16,1 991,4 90 2,00 58
12:30 13,0 11,6 11,3 W 29,0 991,4 91 2,00 107
12:35 13,1 11,7 4,8 NO 32,2 991,4 91 2,30 77
12:40 13,1 11,8 6,4 SE 33,8 991,1 92 2,30 54
12:45 13,0 11,6 3,2 W 22,5 991,1 91 2,30 42
12:50 12,9 11,7 17,7 SW 24,1 990,7 92 3,30 21
12:55 13,0 11,7 14,5 SW 29,0 990,7 92 3,60 44
13:00 13,0 11,7 4,8 W 25,7 990,7 92 3,60 67
13:05 13,1 11,8 4,8 W 25,7 990,4 92 3,80 56
13:10 13,1 11,8 1,6 Oriente 16,1 990,4 92 3,80 58
13:15 13,2 11,9 11,3 Sud 37,0 990,1 92 3,30 46
13:20 13,2 11,9 6,4 SW 27,4 990,1 92 1,80 63
13:25 13,3 12,1 11,3 SW 29,0 989,7 92 1,80 40
13:30 13,4 12,2 4,8 NO 24,1 989,7 92 1,80 32
13:35 13,3 11,8 6,4 NO 24,1 989,7 91 1,50 88
13:40 13,3 11,8 6,4 SE 24,1 989,4 91 1,50 107
13:45 13,6 12,1 12,9 W 29,0 989,4 91 1,50 120
13:50 13,8 12,1 16,1 S 20,9 989,1 90 0,50 114
13:55 13,9 12,3 3,2 Sud 22,5 989,1 90 0,30 83
14:00 14,1 12,2 4,8 S 30,6 988,7 89 0,30 67
14:05 14,2 12,3 3,2 NE 33,8 988,7 89 - 51
14:10 14,2 12,3 4,8 West 35,4 988,4 89 - 54
14:15 14,3 12,4 16,1 S 29,0 988,4 89 - 32
14:20 14,3 12,3 12,9 S 24,1 988,0 88 - 21
14:25 14,3 12,3 6,4 SW 30,6 988,0 88 - 16
14:30 14,4 12,1 17,7 S 30,6 987,7 86 - 12
14:35 14,5 12,0 19,3 S 37,0 987,4 85 - 16
14:40 14,6 12,1 3,2 W 37,0 987,4 85 - 9
14:45 14,6 12,1 9,7 NE 35,4 987,0 85 0,30 9
14:50 14,5 12,2 11,3 NE 43,4 986,7 86 0,50 14
14:55 14,5 12,2 3,2 Nord 48,3 986,7 86 0,50 11
15:00 14,4 12,3 19,3 Sud 37,0 986,3 87 0,80 7
15:05 14,4 12,3 9,7 Sud 41,8 986,3 87 0,80 11
15:10 14,5 12,5 19,3 S 32,2 986,3 88 0,80 12
15:15 14,6 12,4 17,7 S 30,6 986,0 87 0,80 44
15:20 14,7 12,6 16,1 Sud 33,8 986,0 87 0,80 93
15:30 14,9 12,6 6,4 S 33,8 986,0 86 0,80 53
15:35 14,9 12,7 14,5 Sud 25,7 985,7 87 0,80 18
15:40 15,0 12,7 6,4 W 56,3 985,7 86 0,80 23
15:45 15,1 12,5 12,9 W 35,4 985,7 85 0,50 25
15:50 15,2 12,5 11,3 SE 33,8 985,7 84 0,50 16
15:55 15,3 12,4 8,0 NNW 30,6 985,7 83 0,50 9
16:00 15,3 12,4 14,5 NE 37,0 985,7 83 - 9
16:05 15,3 12,4 6,4 Nord 20,9 985,3 83 - 12
16:10 15,3 12,4 11,3 SE 22,5 985,3 83 - 7
16:15 15,3 12,4 20,9 SW 30,6 985,3 83 - 7
16:20 15,2 12,3 8,0 NE 29,0 984,6 83 - 19
16:25 15,0 11,9 6,4 NE 27,4 985,0 82 - 40
16:30 15,1 12,0 12,9 NE 22,5 985,0 82 - 12
16:35 15,1 12,0 6,4 Nord 24,1 984,6 82 - 7
16:40 14,9 11,9 8,0 S 19,3 984,6 82 - -
16:45 14,9 11,9 6,4 Nord 27,4 984,6 82 - -
16:50 15,0 11,9 14,5 S 27,4 984,6 82 - -
16:55 14,8 11,9 8,0 S 33,8 984,6 83 - -
17:00 14,7 11,8 4,8 Oriente 35,4 984,6 83 - -
17:05 14,7 11,8 4,8 NE 22,5 984,3 83 - -
17:10 14,7 11,8 4,8 NE 27,4 984,6 83 - -
17:15 14,8 11,7 17,7 Oriente 29,0 984,6 82 - -
17:20 12,9 9,0 14,5 Nord 51,5 985,7 77 1,50 -
17:25 11,6 8,4 16,1 West 27,4 985,7 81 2,30 -
17:30 10,8 7,3 17,7 West 43,4 985,0 79 3,30 -
17:35 10,9 7,2 8,0 NO 37,0 984,6 78 3,60 -
17:40 11,2 6,9 17,7 West 30,6 985,0 75 3,60 -
17:45 11,8 6,7 8,0 NE 33,8 985,0 71 3,60 -
17:50 12,1 6,6 4,8 West 38,6 985,0 69 3,80 -
17:55 12,2 6,9 12,9 NNW 24,1 985,0 70 3,80 -
18:00 12,3 7,6 6,4 NO 22,5 985,3 73 3,80 -
18:05 12,4 7,7 27,4 W 32,2 985,3 73 3,80 -
18:10 12,7 7,7 12,9 NNW 35,4 985,3 72 3,80 -
18:15 12,7 7,6 4,8 Sud 35,4 985,7 71 3,80 -
18:20 12,7 7,4 8,0 W 41,8 985,7 70 2,30 -
18:25 12,6 7,4 4,8 W 25,7 985,7 71 1,50 -
18:30 12,4 7,5 4,8 W 22,5 985,7 72 0,50 -
18:35 12,3 7,6 19,3 NO 20,9 985,7 73 0,30 -
18:40 12,3 7,6 17,7 West 30,6 985,7 73 0,30 -
18:45 12,2 7,5 3,2 Sud 24,1 985,7 73 0,30 -
18:50 12,1 7,4 4,8 S 19,3 985,7 73 - -
18:55 12,1 7,6 6,4 W 17,7 985,7 74 - -
19:00 12,1 7,6 12,9 SW 17,7 985,7 74 - -
19:05 12,1 7,6 11,3 NO 24,1 985,7 74 - -
19:10 12,1 7,3 14,5 NNW 22,5 985,7 73 - -
19:15 12,1 7,2 20,9 W 46,7 985,7 72 - -
19:20 12,3 6,9 12,9 W 38,6 985,3 70 - -
19:25 12,3 6,8 22,5 SE 41,8 985,7 69 - -
19:30 12,3 6,7 16,1 NE 29,0 985,7 69 - -
19:35 12,3 6,5 22,5 NNW 41,8 985,7 68 - -
19:40 12,2 6,2 9,7 NE 41,8 986,0 67 - -
19:45 12,3 6,1 16,1 SW 33,8 986,0 66 - -
19:50 12,2 6,2 27,4 Nord 33,8 986,0 67 - -
19:55 12,2 6,4 8,0 SW 35,4 986,3 68 - -
20:00 11,9 6,6 1,6 W 27,4 986,3 70 - -
20:05 11,7 6,8 8,0 W 22,5 986,3 72 - -
20:10 11,6 6,7 3,2 NE 37,0 986,0 72 - -
20:15 11,6 6,7 17,7 NO 32,2 986,3 72 - -
20:20 11,6 6,5 16,1 S 35,4 986,3 71 - -
20:25 11,6 6,5 12,9 Sud 29,0 986,3 71 - -
20:30 11,6 6,2 6,4 S 38,6 986,3 70 - -
20:35 11,5 6,4 12,9 W 32,2 986,7 71 - -
20:40 11,4 6,3 19,3 W 25,7 986,7 71 - -
20:45 11,2 6,3 4,8 NO 25,7 986,7 72 - -
20:50 11,1 6,4 8,0 NNW 25,7 986,7 73 - -
20:55 11,1 6,6 12,9 West 25,7 986,7 74 - -
21:00 11,2 6,7 20,9 NO 29,0 986,7 74 - -
21:05 11,2 6,5 1,6 NNW 24,1 987,0 73 - -
21:10 11,1 6,6 6,4 NNW 19,3 987,0 74 - -
21:15 11,1 6,6 9,7 NO 33,8 987,0 74 - -
21:20 11,2 6,5 20,9 NO 29,0 987,0 73 - -
21:25 11,3 6,7 8,0 NO 32,2 987,4 73 - -
21:30 11,3 6,4 8,0 NO 32,2 987,4 72 - -
21:35 11,3 6,6 17,7 NO 32,2 987,4 73 - -
21:40 11,3 6,6 19,3 W 35,4 987,7 73 - -
21:45 11,3 6,6 14,5 W 32,2 987,7 73 - -
21:50 11,3 6,4 20,9 NO 37,0 987,7 72 - -
21:55 11,4 6,3 19,3 West 37,0 987,7 71 - -
22:00 11,4 6,3 22,5 NO 41,8 987,7 71 - -
22:05 11,4 6,3 20,9 NNW 33,8 988,0 71 - -
22:10 11,4 6,1 20,9 NNW 30,6 988,0 70 - -
22:15 11,4 5,9 8,0 W 30,6 988,0 69 - -
22:20 11,4 5,7 4,8 Nord 45,1 988,4 68 - -
22:25 11,4 5,7 6,4 NO 29,0 988,4 68 - -
22:30 11,3 5,8 22,5 NO 30,6 988,4 69 - -
22:35 11,2 5,7 11,3 West 27,4 988,7 69 - -

Download your copy of this data-set  here

Our weather-data as stored at Weather Underground. Script sviluppato da Jim McMurry. Adattato per il modello da Leuven-Template.eu

Potete trovare le nostre info meteo anche a:

European Weather Network

Weather Underground

AWEKAS

Citizen Weather Observer Program (CWOP)

HAMweather, WeatherForYou, PWS Weather

Strumentazione usata:

Stazione meteo
Davis VP2

Programma gestore dati meteo
WVIEW

Server per i dati meteo
Pc-WDS5

Provider
PC-HP-6005

Davis VP2

WVIEW

Pc-WDS5

PC-HP-6005